Weather History for New Castle, PA

Change the Weather History Date:

Monday, March 10, 2014

  Actual Average Record
Temperature  
Mean Temperature 44 °F -  
Max Temperature 55 °F 49 °F 72 °F (1973)
Min Temperature 34 °F 24 °F -5 °F (1984)
Degree Days  
Heating Degree Days 20    
Moisture  
Dew Point 30 °F    
Average Humidity 59    
Maximum Humidity 68    
Minimum Humidity 45    
Precipitation  
Precipitation 0.00 in - - ()
Sea Level Pressure  
Sea Level Pressure 29.82 in    
Wind  
Wind Speed 7 mph (SW)    
Max Wind Speed 15 mph    
Max Gust Speed 23 mph    
Visibility 10 miles    
Events      
Averages and records for this station are not official NWS values.
T = Trace of Precipitation, MM = Missing Value Source: NWS Daily Summary

Daily Weather History Graph

Daily Weather History Graph

Search for Another Location

Airport:

Trip Planner

Search our weather history database for the weather conditions in past years. The results will help you decide how hot, cold, wet, or windy it might be!

Date:

Astronomy

Mar. 10, 2014 Rise Set
Actual Time 7:41 AM EDT 7:22 PM EDT
Civil Twilight 7:14 AM EDT 7:50 PM EDT
Nautical Twilight 6:42 AM EDT 8:22 PM EDT
Astronomical Twilight 6:10 AM EDT 8:54 PM EDT
Moon 2:03 PM EDT (3/10) 3:54 AM EDT (3/10)
Length of Visible Light 12h 36m
Length of Day
11h 41m
Waxing Gibbous, 70% of the Moon is Illuminated
Mar 10
Waxing Gibbous
Mar 16
Full
Mar 23
Last Quarter
Mar 30
New
Apr 7
First Quarter

Hourly Weather History & Observations

Time (EDT) Temp. Windchill Dew Point Humidity Pressure Visibility Wind Dir Wind Speed Gust Speed Precip Events Conditions
12:56 AM 34.0 °F 28.8 °F 22.1 °F 62% 29.99 in 10.0 mi SSW 5.8 mph - N/A   Clear
1:56 AM 34.9 °F 29.9 °F 24.1 °F 65% 29.97 in 10.0 mi SW 5.8 mph - N/A   Clear
2:56 AM 34.9 °F 29.9 °F 24.1 °F 65% 29.94 in 10.0 mi South 5.8 mph - N/A   Clear
3:56 AM 34.9 °F - 25.2 °F 68% 29.94 in 10.0 mi Calm Calm - N/A   Clear
4:56 AM 34.9 °F 30.8 °F 25.2 °F 68% 29.91 in 10.0 mi SSW 4.6 mph - N/A   Clear
5:56 AM 34.9 °F 29.9 °F 25.2 °F 68% 29.90 in 10.0 mi SW 5.8 mph - N/A   Mostly Cloudy
6:56 AM 36.0 °F 30.3 °F 25.2 °F 65% 29.89 in 10.0 mi SW 6.9 mph - N/A   Partly Cloudy
7:56 AM 36.9 °F 30.7 °F 25.2 °F 63% 29.89 in 10.0 mi SW 8.1 mph - N/A   Partly Cloudy
8:56 AM 36.9 °F 32.2 °F 26.1 °F 65% 29.90 in 10.0 mi SW 5.8 mph - N/A   Mostly Cloudy
9:56 AM 38.8 °F 32.6 °F 27.1 °F 63% 29.87 in 10.0 mi SW 9.2 mph - N/A   Partly Cloudy
10:56 AM 41.9 °F 36.9 °F 29.1 °F 61% 29.87 in 10.0 mi SW 8.1 mph - N/A   Partly Cloudy
11:56 AM 45.0 °F 38.9 °F 31.1 °F 58% 29.84 in 10.0 mi WSW 12.7 mph 18.4 mph N/A   Partly Cloudy
12:56 PM 48.9 °F - 32.9 °F 54% 29.82 in 10.0 mi SW 11.5 mph 16.1 mph N/A   Clear
1:56 PM 50.0 °F - 34.0 °F 54% 29.79 in 10.0 mi WSW 12.7 mph - N/A   Partly Cloudy
2:56 PM 50.9 °F - 34.0 °F 52% 29.75 in 10.0 mi SW 11.5 mph - N/A   Partly Cloudy
3:56 PM 54.9 °F - 36.0 °F 49% 29.72 in 10.0 mi SW 11.5 mph 19.6 mph N/A   Scattered Clouds
4:56 PM 55.9 °F - 34.9 °F 45% 29.70 in 10.0 mi SW 15.0 mph 20.7 mph N/A   Clear
5:56 PM 54.9 °F - 34.9 °F 47% 29.69 in 10.0 mi SW 9.2 mph 23.0 mph N/A   Clear
6:56 PM 52.9 °F - 34.9 °F 50% 29.69 in 10.0 mi SW 5.8 mph - N/A   Clear
7:56 PM 48.9 °F - 34.0 °F 56% 29.72 in 10.0 mi Calm Calm - N/A   Clear
8:56 PM 47.8 °F - 34.9 °F 61% 29.72 in 10.0 mi Calm Calm - N/A   Clear
9:56 PM 47.8 °F - 34.9 °F 61% 29.73 in 10.0 mi Calm Calm - N/A   Clear
10:56 PM 47.8 °F - 36.0 °F 63% 29.73 in 10.0 mi SW 6.9 mph - N/A   Clear
11:56 PM 47.8 °F - 36.0 °F 63% 29.73 in 10.0 mi WSW 10.4 mph - N/A   Clear